Location: Atherton
(17.2661°S, 145.4859°E)
Time: 05:19:59
(UTC+10:00)

Transit 4A - Pass Details

Date: 28 June 2025
Orbit: 868 x 973 km, 66.8° (Epoch: 20 July)

Event Time Altitude Azimuth Distance (km) Brightness Sun altitude
Rises 20:26:17 0° 345° (NNW) 3,433 11.2 -34.9°
Reaches altitude 10° 20:28:44 10° 348° (NNW) 2,503 10.4 -35.4°
Enters shadow 20:30:17 19° 351° (N) 1,941 9.7 -35.8°
